Simultaneous Nadir Overpasses (SNOs) Predictions

Prediction of SNOs between GOES-16 and METOP-C Satellite Orbit:

Table of predicted SNOs for the next 14.0 days since TLE Epoch: 9/27/2021
Index Date Time (GOES-16) GOES-16 Lat,Lon METOP-C Lat,Lon Distance(km) Time Diff (sec)
1 09/28/2021 02:26:54 -0.09, -75.19 0.07, -74.38 91.05 80
2 09/29/2021 14:48:24 0.10, -75.21 0.95, -78.94 424.86 80
3 09/30/2021 14:25:04 0.10, -75.22 -0.20, -73.95 144.77 80
4 10/02/2021 02:46:44 -0.11, -75.20 -0.86, -78.54 380.76 80
5 10/03/2021 02:23:23 -0.10, -75.21 0.24, -73.54 189.14 80
6 10/04/2021 14:44:53 0.11, -75.24 0.72, -78.11 325.93 80
7 10/05/2021 14:21:33 0.10, -75.25 -0.38, -73.11 244.37 80
8 10/07/2021 02:43:12 -0.11, -75.25 -0.67, -77.70 280.04 80
9 10/08/2021 02:19:52 -0.11, -75.26 0.43, -72.71 290.46 80
10 10/09/2021 14:41:22 0.12, -75.30 0.54, -77.27 224.03 80
11 10/10/2021 14:18:02 0.12, -75.31 -0.56, -72.27 346.63 80
